sat.trackr.live / text

‹ back to catalog

STARLINK-1168

NORAD 45072 · 2020-006AE

PAYLOAD ACTIVE UNKNOWN

§ Identity

Operator
Country
US
Launch date
2020-01-29
Launch site
AFETR
Launch vehicle
Mass (kg)
RCS (m²)

Purposes: comms

External: N2YO · Heavens-Above · Gunter

§ Orbital elements

Epoch: 2026-09-20T04:32:09.522240Z

Period
93.25 min
Inclination
53.1526°
Eccentricity
0.0000257
Mean motion
15.44199591 rev/d
Perigee alt
433.6 km
Apogee alt
433.9 km
Semi-major
6,811.9 km
B*
6.9788e-4
RAAN
66.3929°
Arg perigee
306.1455°
Mean anomaly
53.9528°
Rev number
36,676

§ Raw data

STARLINK-11681 45072U 20006AE  26263.18899910  .00032245  00000+0  69788-3 0  99962 45072  53.1526  66.3929 0000257 306.1455  53.9528 15.44199591366763

JSON: /api/v1/satellites/45072 · /tle

For live sub-satellite position, see the globe view (requires WebGL).

§ Visibility from observer

Set your observer location to see the next 7 days of passes ≥ 10°. The values pass through the URL so the page stays shareable.

No JS? Fill the form by hand. The geolocation button needs JavaScript.